| time (UTC) | temp C | wind direction | speed KPH | gust KPH | rain 1hr cm | rain 24hr cm | rain mn cm | humidity % | barometer mb |
| 20260503053443 | 13 | 40 | 0.0 | 0.0 | 0.00 | 0.69 | 0.69 | 100 | 1008.6 |
| 20260503053158 | 13 | 40 | 0.0 | 0.0 | 0.00 | 0.69 | 0.69 | 100 | 1008.6 |
| 20260503052358 | 13 | 40 | 0.0 | 0.0 | 0.00 | 0.69 | 0.69 | 100 | 1008.6 |
| 20260503052320 | 13 | 336 | 0.0 | 0.0 | 0.00 | 0.69 | 0.69 | 100 | 1008.6 |
| 20260503051557 | 13 | 336 | 0.0 | 0.0 | 0.00 | 0.69 | 0.69 | 100 | 1008.6 |
| 20260503051045 | 13 | 11 | 0.0 | 0.0 | 0.00 | 0.69 | 0.69 | 100 | 1008.7 |
| 20260503050235 | 13 | 11 | 0.0 | 0.0 | 0.00 | 0.69 | 0.69 | 100 | 1008.7 |
| 20260503045957 | 13 | 11 | 0.0 | 0.0 | 0.00 | 0.69 | 0.69 | 100 | 1008.6 |
| 20260503045224 | 13 | 11 | 0.0 | 0.0 | 0.00 | 0.69 | 0.69 | 100 | 1008.6 |
| 20260503044649 | 13 | 11 | 0.0 | 0.0 | 0.03 | 0.69 | 0.69 | 100 | 1008.7 |
| 20260503044114 | 13 | 11 | 0.0 | 1.6 | 0.03 | 0.69 | 0.69 | 100 | 1008.7 |
| 20260503043755 | 13 | 11 | 0.0 | 1.6 | 0.05 | 0.69 | 0.69 | 100 | 1008.6 |
| 20260503043211 | 13 | 11 | 0.0 | 0.0 | 0.05 | 0.69 | 0.69 | 100 | 1008.6 |
| 20260503042642 | 13 | 11 | 0.0 | 0.0 | 0.05 | 0.69 | 0.69 | 100 | 1008.6 |
| 20260503042526 | 13 | 11 | 0.0 | 0.0 | 0.05 | 0.69 | 0.69 | 100 | 1008.7 |
| 20260503041401 | 13 | 11 | 0.0 | 0.0 | 0.05 | 0.69 | 0.69 | 100 | 1008.6 |
| 20260503040843 | 13 | 11 | 0.0 | 0.0 | 0.05 | 0.69 | 0.69 | 100 | 1008.6 |
| 20260503040602 | 13 | 11 | 0.0 | 0.0 | 0.05 | 0.69 | 0.69 | 100 | 1008.7 |
| 20260503035828 | 13 | 11 | 0.0 | 0.0 | 0.05 | 0.69 | 0.69 | 100 | 1008.7 |
| 20260503035324 | 13 | 11 | 0.0 | 1.6 | 0.05 | 0.69 | 0.69 | 100 | 1008.8 |
| 20260503034822 | 13 | 11 | 0.0 | 1.6 | 0.05 | 0.69 | 0.69 | 100 | 1009.1 |
| 20260503034303 | 13 | 11 | 0.0 | 0.0 | 0.03 | 0.66 | 0.66 | 100 | 1009.1 |
| 20260503033806 | 13 | 11 | 0.0 | 1.6 | 0.05 | 0.66 | 0.66 | 100 | 1009.2 |
| 20260503033508 | 13 | 11 | 0.0 | 1.6 | 0.03 | 0.64 | 0.64 | 100 | 1009.3 |
| 20260503032740 | 13 | 11 | 0.0 | 0.0 | 0.03 | 0.64 | 0.64 | 100 | 1009.4 |
| 20260503032213 | 13 | 36 | 0.0 | 0.0 | 0.03 | 0.64 | 0.64 | 100 | 1009.6 |
| 20260503031640 | 13 | 36 | 0.0 | 0.0 | 0.03 | 0.64 | 0.64 | 100 | 1009.6 |
| 20260503031140 | 13 | 36 | 0.0 | 0.0 | 0.03 | 0.64 | 0.64 | 100 | 1009.7 |
| 20260503030635 | 13 | 30 | 0.0 | 0.0 | 0.03 | 0.64 | 0.64 | 100 | 1009.8 |
| 20260503030132 | 13 | 34 | 0.0 | 0.0 | 0.03 | 0.64 | 0.64 | 100 | 1009.8 |
| 20260503025612 | 13 | 34 | 0.0 | 0.0 | 0.03 | 0.64 | 0.64 | 100 | 1009.8 |
| 20260503025323 | 13 | 38 | 0.0 | 0.0 | 0.03 | 0.64 | 0.64 | 100 | 1009.8 |
| 20260503024528 | 13 | 38 | 0.0 | 0.0 | 0.03 | 0.64 | 0.64 | 100 | 1009.7 |
| 20260503024016 | 13 | 286 | 0.0 | 0.0 | 0.00 | 0.61 | 0.61 | 100 | 1009.7 |
| 20260503023516 | 13 | 286 | 0.0 | 0.0 | 0.00 | 0.61 | 0.61 | 100 | 1009.6 |
| 20260503022952 | 13 | 286 | 0.0 | 0.0 | 0.00 | 0.61 | 0.61 | 100 | 1009.7 |
| 20260503022448 | 13 | 286 | 0.0 | 0.0 | 0.00 | 0.61 | 0.61 | 100 | 1009.7 |
| 20260503021913 | 13 | 286 | 0.0 | 0.0 | 0.00 | 0.61 | 0.61 | 100 | 1009.7 |
| 20260503021400 | 13 | 306 | 0.0 | 0.0 | 0.00 | 0.61 | 0.61 | 100 | 1009.7 |
| 20260503020900 | 13 | 306 | 0.0 | 0.0 | 0.00 | 0.61 | 0.61 | 100 | 1009.7 |
| 20260503020343 | 13 | 306 | 0.0 | 0.0 | 0.00 | 0.61 | 0.61 | 100 | 1009.9 |
| 20260503020105 | 13 | 306 | 0.0 | 0.0 | 0.00 | 0.61 | 0.61 | 100 | 1009.6 |
| 20260503015311 | 13 | 306 | 0.0 | 0.0 | 0.00 | 0.61 | 0.61 | 100 | 1009.6 |
| 20260503014745 | 13 | 306 | 0.0 | 0.0 | 0.00 | 0.61 | 0.61 | 100 | 1009.6 |
| 20260503014244 | 13 | 306 | 0.0 | 0.0 | 0.00 | 0.61 | 0.61 | 100 | 1009.5 |
| 20260503013954 | 13 | 306 | 0.0 | 0.0 | 0.00 | 0.61 | 0.61 | 100 | 1009.6 |
| 20260503013221 | 13 | 306 | 0.0 | 0.0 | 0.00 | 0.61 | 0.61 | 100 | 1009.6 |
| 20260503012649 | 13 | 306 | 0.0 | 0.0 | 0.00 | 0.61 | 0.61 | 100 | 1009.7 |
| 20260503012132 | 13 | 306 | 0.0 | 0.0 | 0.00 | 0.61 | 0.61 | 100 | 1009.7 |
| 20260503011632 | 13 | 306 | 0.0 | 0.0 | 0.00 | 0.61 | 0.61 | 100 | 1009.7 |
| 20260503011057 | 13 | 306 | 0.0 | 0.0 | 0.00 | 0.61 | 0.61 | 100 | 1009.8 |
| 20260503010741 | 13 | 306 | 0.0 | 0.0 | 0.00 | 0.61 | 0.61 | 100 | 1009.8 |
| 20260503005943 | 13 | 306 | 0.0 | 0.0 | 0.00 | 0.61 | 0.61 | 100 | 1009.9 |
| 20260503005705 | 13 | 306 | 0.0 | 0.0 | 0.00 | 0.61 | 0.61 | 100 | 1009.9 |
| 20260503005151 | 13 | 306 | 0.0 | 0.0 | 0.00 | 0.61 | 0.61 | 100 | 1010.0 |
| 20260503004352 | 13 | 298 | 0.0 | 0.0 | 0.00 | 0.61 | 0.61 | 100 | 1009.9 |
| 20260503003836 | 13 | 298 | 0.0 | 1.6 | 0.00 | 0.61 | 0.61 | 100 | 1009.9 |
| 20260503003337 | 13 | 298 | 0.0 | 1.6 | 0.00 | 0.61 | 0.61 | 100 | 1010.1 |
| 20260503002802 | 13 | 283 | 0.0 | 0.0 | 0.00 | 0.61 | 0.61 | 100 | 1009.9 |
| 20260503002249 | 13 | 261 | 0.0 | 0.0 | 0.00 | 0.61 | 0.61 | 100 | 1010.0 |
| 20260503001740 | 13 | 261 | 0.0 | 0.0 | 0.03 | 0.61 | 0.61 | 100 | 1010.1 |
| 20260503001236 | 13 | 261 | 0.0 | 0.0 | 0.03 | 0.61 | 0.61 | 100 | 1010.2 |
| 20260503000733 | 13 | 261 | 0.0 | 0.0 | 0.03 | 0.61 | 0.61 | 100 | 1010.3 |
| 20260503000156 | 13 | 261 | 0.0 | 0.0 | 0.03 | 0.61 | 0.61 | 100 | 1010.4 |
| 20260502235915 | 13 | 261 | 0.0 | 0.0 | 0.05 | 0.61 | 0.61 | 100 | 1010.4 |
| 20260502235142 | 13 | 261 | 0.0 | 0.0 | 0.13 | 0.61 | 0.61 | 100 | 1010.4 |
| 20260502234623 | 13 | 261 | 0.0 | 0.0 | 0.20 | 0.61 | 0.61 | 100 | 1010.4 |
| 20260502234124 | 13 | 261 | 0.0 | 0.0 | 0.23 | 0.61 | 0.61 | 100 | 1010.4 |
| 20260502233551 | 13 | 258 | 0.0 | 0.0 | 0.28 | 0.61 | 0.61 | 100 | 1010.4 |
| 20260502233316 | 13 | 273 | 0.0 | 0.0 | 0.36 | 0.61 | 0.61 | 100 | 1010.5 |
| 20260502232803 | 13 | 273 | 0.0 | 1.6 | 0.41 | 0.61 | 0.61 | 100 | 1010.5 |
| 20260502232043 | 13 | 273 | 0.0 | 1.6 | 0.46 | 0.61 | 0.61 | 100 | 1010.4 |
| 20260502231543 | 13 | 272 | 0.0 | 0.0 | 0.46 | 0.58 | 0.58 | 100 | 1010.4 |
| 20260502231038 | 13 | 272 | 0.0 | 0.0 | 0.51 | 0.58 | 0.58 | 100 | 1010.4 |
| 20260502230535 | 13 | 270 | 0.0 | 0.0 | 0.58 | 0.58 | 0.58 | 100 | 1010.5 |
| 20260502230011 | 13 | 257 | 0.0 | 0.0 | 0.58 | 0.58 | 0.58 | 100 | 1010.7 |
| 20260502225503 | 13 | 271 | 0.0 | 0.0 | 0.53 | 0.53 | 0.53 | 100 | 1010.8 |
| 20260502224956 | 13 | 254 | 0.0 | 0.0 | 0.46 | 0.46 | 0.46 | 100 | 1011.0 |
| 20260502224447 | 13 | 263 | 0.0 | 0.0 | 0.41 | 0.41 | 0.41 | 100 | 1010.9 |
| 20260502223948 | 13 | 271 | 0.0 | 0.0 | 0.36 | 0.36 | 0.36 | 100 | 1011.1 |
| 20260502223708 | 13 | 183 | 0.0 | 1.6 | 0.33 | 0.33 | 0.33 | 100 | 1011.3 |
| 20260502222945 | 13 | 212 | 0.0 | 1.6 | 0.25 | 0.25 | 0.25 | 100 | 1011.7 |
| 20260502222445 | 14 | 319 | 0.0 | 0.0 | 0.20 | 0.20 | 0.20 | 100 | 1012.0 |
| 20260502221943 | 14 | 319 | 0.0 | 0.0 | 0.15 | 0.15 | 0.15 | 100 | 1012.3 |
| 20260502221443 | 14 | 327 | 0.0 | 0.0 | 0.13 | 0.13 | 0.13 | 100 | 1012.4 |
| 20260502220943 | 15 | 327 | 0.0 | 0.0 | 0.05 | 0.05 | 0.08 | 100 | 1012.8 |
| 20260502220443 | 15 | 327 | 0.0 | 0.0 | 0.00 | 0.00 | 0.00 | 100 | 1012.6 |
| 20260502215943 | 15 | 281 | 0.0 | 0.0 | 0.00 | 0.00 | 0.00 | 100 | 1012.8 |
| 20260502215443 | 15 | 346 | 0.0 | 3.2 | 0.00 | 0.00 | 0.00 | 100 | 1013.5 |
| 20260502214939 | 15 | 204 | 0.0 | 3.2 | 0.00 | 0.00 | 0.00 | 100 | 1013.5 |
| 20260502214439 | 15 | 323 | 0.0 | 0.0 | 0.00 | 0.00 | 0.00 | 100 | 1012.5 |
| 20260502214201 | 15 | 323 | 0.0 | 0.0 | 0.00 | 0.00 | 0.00 | 100 | 1011.7 |
| 20260502213438 | 15 | 5 | 0.0 | 0.0 | 0.00 | 0.00 | 0.00 | 100 | 1011.6 |
| 20260502212932 | 15 | 9 | 0.0 | 0.0 | 0.00 | 0.00 | 0.00 | 100 | 1011.7 |
| 20260502212425 | 15 | 9 | 0.0 | 0.0 | 0.00 | 0.00 | 0.00 | 100 | 1011.6 |
| 20260502211904 | 15 | 9 | 0.0 | 0.0 | 0.00 | 0.00 | 0.00 | 100 | 1011.7 |
| 20260502211343 | 15 | 9 | 0.0 | 0.0 | 0.00 | 0.00 | 0.00 | 100 | 1011.7 |
| 20260502211104 | 15 | 9 | 0.0 | 0.0 | 0.00 | 0.00 | 0.00 | 100 | 1011.6 |
| 20260502210343 | 15 | 9 | 0.0 | 0.0 | 0.00 | 0.00 | 0.00 | 8 | 1011.6 |
| 20260502205843 | 15 | 9 | 0.0 | 0.0 | 0.00 | 0.00 | 0.00 | 22 | 1011.7 |
| 20260502205344 | 15 | 24 | 0.0 | 0.0 | 0.00 | 0.00 | 0.00 | 39 | 1011.8 |
| 20260502204843 | 15 | 24 | 0.0 | 0.0 | 0.00 | 0.00 | 0.00 | 45 | 1011.9 |
| 20260502204547 | 15 | 24 | 0.0 | 0.0 | 0.00 | 0.00 | 0.00 | 51 | 1012.1 |
| 20260502204434 | 15 | 24 | 0.0 | 0.0 | 0.00 | 0.00 | 0.00 | 49 | 1012.0 |
| 20260502203339 | 15 | 24 | 0.0 | 0.0 | 0.00 | 0.00 | 0.00 | 52 | 1012.2 |
| 20260502202839 | 15 | 24 | 0.0 | 0.0 | 0.00 | 0.00 | 0.00 | 53 | 1012.2 |
| 20260502202335 | 15 | 24 | 0.0 | 0.0 | 0.00 | 0.00 | 0.00 | 55 | 1012.2 |
| 20260502202047 | 15 | 35 | 0.0 | 0.0 | 0.00 | 0.00 | 0.00 | 57 | 1012.3 |
| 20260502201329 | 15 | 35 | 0.0 | 0.0 | 0.00 | 0.00 | 0.00 | 58 | 1012.4 |
| 20260502200819 | 15 | 63 | 0.0 | 0.0 | 0.00 | 0.00 | 0.00 | 59 | 1012.5 |
| 20260502200316 | 15 | 63 | 0.0 | 0.0 | 0.00 | 0.00 | 0.00 | 60 | 1012.6 |
| 20260502195755 | 15 | 63 | 0.0 | 0.0 | 0.00 | 0.00 | 0.00 | 60 | 1012.7 |
| 20260502195251 | 15 | 63 | 0.0 | 0.0 | 0.00 | 0.00 | 0.00 | 60 | 1012.6 |
| 20260502195016 | 16 | 63 | 0.0 | 0.0 | 0.00 | 0.00 | 0.00 | 60 | 1012.6 |
| 20260502194250 | 16 | 63 | 0.0 | 0.0 | 0.00 | 0.00 | 0.00 | 59 | 1012.7 |
| 20260502193747 | 16 | 63 | 0.0 | 0.0 | 0.00 | 0.00 | 0.00 | 59 | 1012.5 |
| 20260502193247 | 16 | 63 | 0.0 | 0.0 | 0.00 | 0.00 | 0.00 | 59 | 1012.5 |
| 20260502192740 | 16 | 63 | 0.0 | 0.0 | 0.00 | 0.00 | 0.00 | 59 | 1012.5 |
| 20260502192236 | 16 | 5 | 0.0 | 0.0 | 0.00 | 0.00 | 0.00 | 59 | 1012.5 |
| 20260502191707 | 16 | 5 | 0.0 | 0.0 | 0.00 | 0.00 | 0.00 | 59 | 1012.5 |
| 20260502191207 | 16 | 5 | 0.0 | 0.0 | 0.00 | 0.00 | 0.00 | 58 | 1012.6 |
| 20260502190703 | 16 | 5 | 0.0 | 0.0 | 0.00 | 0.00 | 0.00 | 59 | 1012.6 |
| 20260502190206 | 16 | 5 | 0.0 | 0.0 | 0.00 | 0.00 | 0.00 | 59 | 1012.6 |
| 20260502185643 | 16 | 5 | 0.0 | 0.0 | 0.00 | 0.00 | 0.00 | 59 | 1012.7 |
| 20260502185144 | 17 | 23 | 0.0 | 0.0 | 0.00 | 0.00 | 0.00 | 59 | 1012.7 |
| 20260502184644 | 17 | 355 | 0.0 | 0.0 | 0.00 | 0.00 | 0.00 | 59 | 1012.7 |
| 20260502184141 | 17 | 355 | 0.0 | 0.0 | 0.00 | 0.00 | 0.00 | 59 | 1012.7 |
| 20260502183638 | 17 | 355 | 0.0 | 0.0 | 0.00 | 0.00 | 0.00 | 58 | 1012.6 |
| 20260502183117 | 17 | 102 | 0.0 | 0.0 | 0.00 | 0.00 | 0.00 | 58 | 1012.6 |
| 20260502182605 | 18 | 355 | 0.0 | 0.0 | 0.00 | 0.00 | 0.00 | 57 | 1012.6 |
| 20260502182047 | 18 | 355 | 0.0 | 0.0 | 0.00 | 0.00 | 0.00 | 56 | 1012.6 |
| 20260502181808 | 18 | 338 | 0.0 | 0.0 | 0.00 | 0.00 | 0.00 | 53 | 1012.5 |
| 20260502181309 | 18 | 94 | 0.0 | 0.0 | 0.00 | 0.00 | 0.00 | 48 | 1012.5 |
| 20260502180548 | 18 | 355 | 0.0 | 1.6 | 0.00 | 0.00 | 0.00 | 46 | 1012.5 |
| 20260502180246 | 18 | 15 | 0.0 | 1.6 | 0.00 | 0.00 | 0.00 | 47 | 1012.5 |
| 20260502170145 | 20 | 17 | 0.0 | 4.8 | 0.00 | 0.00 | 0.00 | 45 | 1013.2 |
| 20260502164116 | 21 | 355 | 0.0 | 4.8 | 0.00 | 0.00 | 0.00 | 44 | 1013.5 |
| 20260502163346 | 21 | 355 | 0.0 | 6.4 | 0.00 | 0.00 | 0.00 | 44 | 1013.7 |
| 20260502162828 | 21 | 5 | 0.0 | 6.4 | 0.00 | 0.00 | 0.00 | 44 | 1013.7 |
| 20260502162316 | 21 | 0 | 0.0 | 4.8 | 0.00 | 0.00 | 0.00 | 44 | 1013.7 |
| 20260502161817 | 21 | 51 | 0.0 | 9.7 | 0.00 | 0.00 | 0.00 | 45 | 1013.7 |
| 20260502161300 | 21 | 5 | 0.0 | 9.7 | 0.00 | 0.00 | 0.00 | 44 | 1013.7 |
| 20260502160759 | 21 | 355 | 0.0 | 4.8 | 0.00 | 0.00 | 0.00 | 44 | 1013.7 |
| 20260502160259 | 21 | 169 | 0.0 | 4.8 | 0.00 | 0.00 | 0.00 | 44 | 1013.8 |
| 20260502152249 | 22 | 46 | 0.0 | 9.7 | 0.00 | 0.00 | 0.00 | 48 | 1014.0 |
| 20260502151747 | 22 | 144 | 0.0 | 9.7 | 0.00 | 0.00 | 0.00 | 48 | 1014.0 |
| 20260502151246 | 22 | 342 | 0.0 | 6.4 | 0.00 | 0.00 | 0.00 | 48 | 1014.0 |
| 20260502150747 | 22 | 42 | 0.0 | 6.4 | 0.00 | 0.00 | 0.00 | 48 | 1014.1 |
| 20260502150247 | 22 | 345 | 0.0 | 3.2 | 0.00 | 0.00 | 0.00 | 48 | 1014.1 |
| 20260502130653 | 21 | 146 | 0.0 | 3.2 | 0.00 | 0.00 | 0.00 | 58 | 1015.2 |
| 20260502130154 | 21 | 42 | 0.0 | 9.7 | 0.00 | 0.00 | 0.00 | 58 | 1015.2 |
| 20260502123647 | 21 | 131 | 0.0 | 4.8 | 0.00 | 0.00 | 0.00 | 57 | 1015.4 |
| 20260502123147 | 21 | 113 | 0.0 | 6.4 | 0.00 | 0.00 | 0.00 | 58 | 1015.4 |
| 20260502122647 | 21 | 85 | 0.0 | 6.4 | 0.00 | 0.00 | 0.00 | 58 | 1015.5 |
| 20260502122149 | 21 | 342 | 0.0 | 9.7 | 0.00 | 0.00 | 0.00 | 57 | 1015.5 |
| 20260502121646 | 21 | 205 | 0.0 | 9.7 | 0.00 | 0.00 | 0.00 | 58 | 1015.6 |
| 20260502121147 | 21 | 157 | 0.0 | 9.7 | 0.00 | 0.00 | 0.00 | 58 | 1015.6 |
| 20260502120647 | 21 | 153 | 0.0 | 9.7 | 0.00 | 0.00 | 0.00 | 57 | 1015.6 |
| 20260502120143 | 21 | 188 | 0.0 | 6.4 | 0.00 | 0.00 | 0.00 | 57 | 1015.6 |
| 20260502115911 | 21 | 162 | 0.0 | 9.7 | 0.00 | 0.00 | 0.00 | 56 | 1015.7 |
| 20260502115137 | 20 | 164 | 0.0 | 11.3 | 0.00 | 0.00 | 0.00 | 56 | 1015.7 |
| 20260502114633 | 20 | 156 | 0.0 | 11.3 | 0.00 | 0.00 | 0.00 | 55 | 1015.7 |
| 20260502114123 | 20 | 156 | 0.0 | 3.2 | 0.00 | 0.00 | 0.00 | 51 | 1015.8 |
| 20260502113847 | 20 | 167 | 0.0 | 4.8 | 0.00 | 0.00 | 0.00 | 49 | 1015.8 |
| 20260502113112 | 20 | 97 | 0.0 | 4.8 | 0.00 | 0.00 | 0.00 | 47 | 1015.8 |
| 20260502112611 | 20 | 134 | 0.0 | 6.4 | 0.00 | 0.00 | 0.00 | 46 | 1015.9 |
| 20260502112113 | 20 | 34 | 0.0 | 11.3 | 0.00 | 0.00 | 0.00 | 44 | 1015.9 |
| 20260502111559 | 20 | 55 | 0.0 | 11.3 | 0.00 | 0.00 | 0.00 | 48 | 1016.0 |
| 20260502111100 | 20 | 107 | 0.0 | 6.4 | 0.00 | 0.00 | 0.00 | 49 | 1016.0 |
| 20260502110558 | 20 | 135 | 0.0 | 1.6 | 0.00 | 0.00 | 0.00 | 51 | 1016.0 |
| 20260502110331 | 20 | 138 | 0.0 | 6.4 | 0.00 | 0.00 | 0.00 | 52 | 1015.9 |
| 20260502105601 | 20 | 150 | 0.0 | 6.4 | 0.00 | 0.00 | 0.00 | 51 | 1015.8 |
| 20260502105100 | 20 | 11 | 0.0 | 4.8 | 0.00 | 0.00 | 0.00 | 52 | 1016.0 |
| 20260502104552 | 20 | 135 | 0.0 | 9.7 | 0.00 | 0.00 | 0.00 | 52 | 1016.1 |
| 20260502104308 | 20 | 188 | 0.0 | 9.7 | 0.00 | 0.00 | 0.00 | 54 | 1016.1 |
| 20260502104028 | 20 | 153 | 0.0 | 6.4 | 0.00 | 0.00 | 0.00 | 55 | 1016.1 |
| 20260502103042 | 20 | 105 | 0.0 | 6.4 | 0.00 | 0.00 | 0.00 | 56 | 1016.1 |
| 20260502102755 | 20 | 348 | 0.0 | 8.0 | 0.00 | 0.00 | 0.00 | 56 | 1016.0 |
| 20260502102030 | 20 | 149 | 0.0 | 8.0 | 0.00 | 0.00 | 0.00 | 54 | 1016.1 |
| 20260502101745 | 20 | 155 | 0.0 | 6.4 | 0.00 | 0.00 | 0.00 | 55 | 1016.1 |
| 20260502101026 | 20 | 315 | 0.0 | 6.4 | 0.00 | 0.00 | 0.00 | 53 | 1016.2 |
| 20260502100527 | 20 | 163 | 0.0 | 8.0 | 0.00 | 0.00 | 0.00 | 54 | 1016.2 |
| 20260502091444 | 18 | 150 | 0.0 | 0.0 | 0.00 | 0.00 | 0.00 | 43 | 1016.3 |
| 20260502090940 | 18 | 131 | 0.0 | 0.0 | 0.00 | 0.00 | 0.00 | 44 | 1016.4 |
| 20260502090434 | 18 | 130 | 0.0 | 0.0 | 0.00 | 0.00 | 0.00 | 45 | 1016.4 |
| 20260502090156 | 18 | 162 | 0.0 | 0.0 | 0.00 | 0.00 | 0.00 | 38 | 1016.3 |
| 20260502071256 | 15 | 39 | 0.0 | 0.0 | 0.00 | 0.00 | 0.00 | 60 | 1016.4 |
| 20260502070748 | 15 | 36 | 0.0 | 0.0 | 0.00 | 0.00 | 0.00 | 61 | 1016.4 |
| 20260502070513 | 15 | 37 | 0.0 | 0.0 | 0.00 | 0.00 | 0.00 | 61 | 1016.6 |
| 20260502065744 | 15 | 37 | 0.0 | 0.0 | 0.00 | 0.00 | 0.00 | 61 | 1016.7 |
| 20260502065245 | 14 | 37 | 0.0 | 0.0 | 0.00 | 0.00 | 0.00 | 61 | 1016.6 |
| 20260502064739 | 14 | 37 | 0.0 | 0.0 | 0.00 | 0.00 | 0.00 | 61 | 1016.4 |
| 20260502064241 | 14 | 37 | 0.0 | 0.0 | 0.00 | 0.00 | 0.00 | 61 | 1016.4 |
| 20260502063949 | 14 | 37 | 0.0 | 0.0 | 0.00 | 0.00 | 0.00 | 61 | 1016.4 |
| 20260502063222 | 13 | 37 | 0.0 | 0.0 | 0.00 | 0.00 | 0.00 | 61 | 1016.4 |
| 20260502062948 | 13 | 37 | 0.0 | 0.0 | 0.00 | 0.00 | 0.00 | 61 | 1016.4 |
| 20260502062210 | 13 | 37 | 0.0 | 0.0 | 0.00 | 0.00 | 0.00 | 61 | 1016.5 |
| 20260502061709 | 13 | 37 | 0.0 | 0.0 | 0.00 | 0.00 | 0.00 | 61 | 1016.4 |
| 20260502061146 | 13 | 37 | 0.0 | 0.0 | 0.00 | 0.00 | 0.00 | 61 | 1016.3 |
| 20260502060634 | 13 | 37 | 0.0 | 0.0 | 0.00 | 0.00 | 0.00 | 61 | 1016.4 |
| 20260502060112 | 13 | 37 | 0.0 | 0.0 | 0.00 | 0.00 | 0.00 | 62 | 1016.5 |
| 20260502055614 | 12 | 37 | 0.0 | 0.0 | 0.00 | 0.00 | 0.00 | 62 | 1016.5 |
| 20260502055055 | 12 | 37 | 0.0 | 0.0 | 0.00 | 0.00 | 0.00 | 62 | 1016.5 |
| 20260502054538 | 12 | 37 | 0.0 | 0.0 | 0.00 | 0.00 | 0.00 | 62 | 1016.4 |
| 20260502054041 | 12 | 38 | 0.0 | 0.0 | 0.00 | 0.00 | 0.00 | 62 | 1016.3 |